Total_Precipitation_Accumulation
0.00 0.01 0.01 0.03 0.02 0.01 0.02 0.02 0.04 0.04 0.03 0.02 0.06 0.11 0.14 0.05 0.00 0.00 0.00 0.00 0.01 0.08 0.10 0.01 0.00 0.02 0.05 0.03 0.04 0.15 0.23 0.08 0.00 0.00 0.00 0.00 0.00 0.00 0.00 0.00 0.00 0.00 0.00 0.00 0.00
0.00 0.02 0.02 0.03 0.01 0.02 0.03 0.04 0.03 0.01 0.01 0.03 0.10 0.14 0.11 0.02 0.00 0.00 0.00 0.01 0.02 0.08 0.12 0.06 0.07 0.07 0.11 0.03 0.09 0.12 0.13 0.02 0.00 0.00 0.00 0.00 0.00 0.00 0.00 0.00 0.00 0.00 0.00 0.00 0.03
0.01 0.02 0.02 0.02 0.01 0.02 0.04 0.04 0.01 0.00 0.01 0.02 0.06 0.06 0.03 0.00 0.00 0.00 0.08 0.07 0.03 0.09 0.09 0.07 0.08 0.14 0.13 0.09 0.06 0.03 0.01 0.00 0.00 0.01 0.01 0.02 0.01 0.00 0.00 0.00 0.00 0.00 0.00 0.01 0.07
0.01 0.02 0.02 0.02 0.02 0.03 0.04 0.02 0.00 0.00 0.01 0.01 0.02 0.01 0.02 0.00 0.00 0.00 0.11 0.02 0.02 0.17 0.25 0.12 0.16 0.18 0.13 0.11 0.01 0.01 0.00 0.00 0.03 0.06 0.04 0.03 0.04 0.01 0.00 0.00 0.00 0.00 0.00 0.00 0.02
0.02 0.02 0.02 0.01 0.03 0.03 0.02 0.00 0.00 0.01 0.00 0.00 0.01 0.02 0.00 0.00 0.00 0.00 0.00 0.00 0.00 0.03 0.21 0.21 0.15 0.19 0.15 0.04 0.04 0.01 0.01 0.00 0.01 0.08 0.03 0.01 0.01 0.02 0.01 0.02 0.00 0.00 0.00 0.00 0.00
0.02 0.02 0.02 0.02 0.03 0.03 0.01 0.00 0.00 0.00 0.00 0.00 0.00 0.01 0.00 0.00 0.00 0.00 0.00 0.00 0.00 0.00 0.09 0.29 0.11 0.17 0.18 0.06 0.06 0.00 0.02 0.02 0.01 0.02 0.02 0.01 0.01 0.01 0.01 0.01 0.00 0.00 0.00 0.00 0.00
0.02 0.02 0.02 0.02 0.03 0.02 0.01 0.00 0.00 0.00 0.00 0.00 0.00 0.00 0.00 0.00 0.00 0.00 0.00 0.00 0.00 0.00 0.03 0.18 0.23 0.30 0.38 0.16 0.01 0.03 0.01 0.07 0.02 0.02 0.04 0.02 0.02 0.04 0.01 0.00 0.00 0.00 0.00 0.00 0.00
0.02 0.02 0.02 0.02 0.03 0.02 0.00 0.00 0.00 0.00 0.00 0.00 0.00 0.00 0.00 0.00 0.00 0.00 0.00 0.00 0.00 0.00 0.00 0.08 0.19 0.24 0.48 0.29 0.03 0.11 0.04 0.05 0.02 0.01 0.02 0.05 0.05 0.00 0.00 0.01 0.00 0.00 0.00 0.00 0.00
0.02 0.02 0.02 0.03 0.03 0.01 0.00 0.00 0.00 0.00 0.00 0.00 0.00 0.00 0.00 0.00 0.00 0.00 0.00 0.00 0.00 0.00 0.00 0.03 0.10 0.34 0.37 0.51 0.21 0.16 0.08 0.00 0.02 0.02 0.01 0.01 0.00 0.00 0.00 0.00 0.00 0.00 0.00 0.00 0.00
0.01 0.02 0.02 0.03 0.02 0.00 0.00 0.00 0.00 0.00 0.00 0.00 0.00 0.00 0.01 0.00 0.00 0.00 0.00 0.00 0.01 0.00 0.02 0.08 0.17 0.26 0.47 0.67 0.41 0.10 0.03 0.00 0.01 0.02 0.02 0.01 0.00 0.00 0.00 0.00 0.00 0.00 0.00 0.00 0.00
0.01 0.02 0.02 0.03 0.01 0.00 0.00 0.00 0.00 0.00 0.00 0.00 0.00 0.00 0.00 0.00 0.00 0.00 0.00 0.00 0.01 0.02 0.04 0.21 0.29 0.22 0.21 0.25 0.16 0.05 0.01 0.00 0.00 0.00 0.02 0.00 0.00 0.00 0.00 0.00 0.00 0.00 0.00 0.00 0.00
0.01 0.02 0.02 0.02 0.00 0.00 0.00 0.00 0.00 0.00 0.00 0.00 0.00 0.00 0.00 0.00 0.00 0.00 0.00 0.02 0.06 0.07 0.08 0.17 0.09 0.01 0.04 0.20 0.33 0.11 0.03 0.01 0.01 0.02 0.03 0.01 0.00 0.00 0.00 0.00 0.00 0.00 0.00 0.00 0.00
0.01 0.02 0.02 0.01 0.00 0.00 0.00 0.00 0.00 0.00 0.00 0.00 0.00 0.00 0.00 0.00 0.00 0.00 0.00 0.01 0.02 0.03 0.07 0.11 0.07 0.01 0.10 0.27 0.51 0.06 0.01 0.00 0.01 0.03 0.05 0.02 0.03 0.00 0.00 0.00 0.00 0.00 0.00 0.00 0.00
0.02 0.01 0.01 0.00 0.00 0.00 0.00 0.00 0.00 0.00 0.00 0.00 0.00 0.00 0.00 0.00 0.00 0.00 0.00 0.00 0.02 0.05 0.04 0.05 0.03 0.03 0.08 0.18 0.40 0.10 0.01 0.02 0.02 0.03 0.14 0.03 0.04 0.01 0.00 0.00 0.00 0.00 0.00 0.00 0.00
0.01 0.01 0.00 0.00 0.00 0.00 0.00 0.00 0.00 0.00 0.02 0.01 0.00 0.00 0.00 0.02 0.00 0.00 0.00 0.00 0.01 0.02 0.06 0.17 0.05 0.04 0.04 0.12 0.36 0.16 0.03 0.05 0.08 0.03 0.03 0.02 0.01 0.00 0.00 0.00 0.00 0.00 0.00 0.00 0.00
0.01 0.01 0.00 0.00 0.00 0.00 0.00 0.00 0.00 0.01 0.01 0.00 0.00 0.00 0.04 0.10 0.01 0.00 0.00 0.00 0.01 0.02 0.07 0.15 0.06 0.09 0.07 0.17 0.39 0.19 0.04 0.09 0.13 0.12 0.13 0.01 0.00 0.00 0.00 0.00 0.00 0.00 0.00 0.00 0.00
0.00 0.00 0.00 0.00 0.00 0.00 0.00 0.00 0.01 0.01 0.00 0.01 0.01 0.03 0.08 0.16 0.04 0.00 0.00 0.00 0.00 0.04 0.09 0.13 0.12 0.08 0.10 0.35 0.52 0.48 0.20 0.32 0.36 0.20 0.05 0.00 0.00 0.00 0.00 0.00 0.00 0.00 0.00 0.00 0.00
0.00 0.00 0.00 0.00 0.00 0.00 0.00 0.00 0.00 0.01 0.00 0.00 0.01 0.03 0.10 0.17 0.09 0.00 0.00 0.00 0.00 0.01 0.05 0.08 0.12 0.09 0.10 0.35 0.63 0.37 0.22 0.15 0.06 0.03 0.00 0.00 0.01 0.00 0.00 0.00 0.00 0.00 0.00 0.00 0.00
0.00 0.00 0.00 0.00 0.00 0.00 0.00 0.00 0.01 0.00 0.02 0.01 0.02 0.04 0.07 0.20 0.21 0.07 0.00 0.00 0.00 0.00 0.05 0.07 0.09 0.04 0.04 0.17 0.60 0.48 0.07 0.07 0.01 0.00 0.01 0.00 0.00 0.00 0.00 0.00 0.00 0.00 0.00 0.00 0.00
0.00 0.00 0.00 0.00 0.00 0.00 0.00 0.00 0.00 0.01 0.01 0.03 0.07 0.05 0.12 0.26 0.25 0.31 0.06 0.00 0.00 0.00 0.01 0.06 0.11 0.06 0.09 0.13 0.31 0.43 0.06 0.08 0.03 0.01 0.02 0.00 0.00 0.00 0.00 0.00 0.00 0.00 0.00 0.00 0.00
0.00 0.00 0.00 0.00 0.00 0.00 0.00 0.00 0.00 0.01 0.02 0.05 0.03 0.05 0.11 0.22 0.14 0.42 0.24 0.04 0.00 0.00 0.00 0.03 0.08 0.17 0.18 0.11 0.13 0.20 0.06 0.02 0.03 0.01 0.01 0.00 0.00 0.00 0.00 0.00 0.00 0.00 0.00 0.00 0.00
0.00 0.00 0.00 0.00 0.00 0.00 0.00 0.00 0.00 0.01 0.03 0.04 0.05 0.14 0.14 0.12 0.06 0.47 0.54 0.14 0.01 0.00 0.00 0.04 0.11 0.15 0.16 0.04 0.04 0.05 0.01 0.03 0.06 0.02 0.01 0.01 0.00 0.00 0.00 0.00 0.00 0.00 0.00 0.00 0.00
0.00 0.00 0.00 0.00 0.00 0.00 0.00 0.00 0.00 0.01 0.03 0.06 0.10 0.13 0.16 0.09 0.06 0.15 0.56 0.15 0.01 0.00 0.10 0.11 0.11 0.19 0.16 0.05 0.03 0.05 0.00 0.01 0.01 0.01 0.02 0.03 0.00 0.00 0.00 0.00 0.00 0.00 0.00 0.00 0.00
0.00 0.00 0.00 0.00 0.00 0.00 0.00 0.00 0.00 0.00 0.02 0.05 0.07 0.10 0.10 0.03 0.01 0.06 0.65 0.16 0.02 0.05 0.04 0.06 0.09 0.09 0.06 0.02 0.00 0.00 0.00 0.00 0.00 0.01 0.01 0.02 0.00 0.00 0.00 0.00 0.00 0.00 0.00 0.00 0.00
0.00 0.00 0.00 0.00 0.00 0.00 0.00 0.00 0.00 0.00 0.01 0.01 0.06 0.19 0.39 0.16 0.04 0.03 0.48 0.39 0.17 0.14 0.03 0.02 0.10 0.02 0.00 0.00 0.00 0.00 0.00 0.00 0.00 0.00 0.00 0.00 0.00 0.00 0.00 0.00 0.00 0.00 0.00 0.00 0.00
0.00 0.00 0.00 0.00 0.00 0.00 0.00 0.00 0.00 0.00 0.00 0.00 0.06 0.06 0.21 0.20 0.22 0.10 0.11 0.37 0.34 0.09 0.11 0.02 0.01 0.00 0.00 0.00 0.00 0.00 0.00 0.00 0.00 0.00 0.00 0.00 0.00 0.00 0.00 0.00 0.00 0.00 0.00 0.00 0.00
0.00 0.00 0.00 0.00 0.00 0.00 0.00 0.00 0.00 0.00 0.00 0.00 0.01 0.04 0.10 0.06 0.06 0.01 0.00 0.01 0.07 0.13 0.04 0.00 0.00 0.01 0.02 0.00 0.00 0.00 0.00 0.00 0.00 0.00 0.00 0.00 0.00 0.00 0.00 0.00 0.00 0.00 0.00 0.00 0.00